Saipan, MP

4:46 PM ChST on June 22, 2018 (GMT +1000)
Saipan International

Weather History for PGSN - June, 2018

Change the Weather History Date:

Wednesday, June 13, 2018

  Actual Average Record
Temperature  
Mean Temperature 83 °F -  
Max Temperature 87 °F 85 °F 93 °F (2017)
Min Temperature 79 °F 76 °F 75 °F (2013)
Cooling Degree Days 18    
Growing Degree Days 33 (Base 50)    
Moisture  
Dew Point 78 °F    
Average Humidity 86    
Maximum Humidity 97    
Minimum Humidity 77    
Precipitation  
Precipitation 0.07 in - - ()
Sea Level Pressure  
Sea Level Pressure 29.92 in    
Wind  
Wind Speed 9 mph (East)    
Max Wind Speed 12 mph    
Max Gust Speed 17 mph    
Visibility 10 miles    
Events      
Averages and records for this station are not official NWS values.
T = Trace of Precipitation, MM = Missing Value Source: NWS Daily Summary

Daily Weather History Graph

Daily Weather History Graph

Search for Another Location

Airport or City:

Astronomy

Jun. 13, 2018 Rise Set
Actual Time 5:46 AM ChST 6:47 PM ChST
Civil Twilight 5:23 AM ChST 7:11 PM ChST
Nautical Twilight 4:55 AM ChST 7:39 PM ChST
Astronomical Twilight 4:26 AM ChST 8:07 PM ChST
Moon 4:59 AM ChST (6/13) 6:09 PM ChST (6/13)
Length of Visible Light 13h 48m
Length of Day
13h 00m
Waning Crescent, 1% of the Moon is Illuminated
Jun 13
Waning Crescent
Jun 14
New
Jun 20
First Quarter
Jun 28
Full
Jul 6
Last Quarter

Hourly Weather History & Observations

Time (ChST) Temp. Heat Index Dew Point Humidity Pressure Visibility Wind Dir Wind Speed Gust Speed Precip Events Conditions
12:54 AM 79.0 °F - 78.1 °F 97% 29.92 in 10.0 mi ESE 9.2 mph - N/A   Scattered Clouds
1:54 AM 79.0 °F - 77.0 °F 94% 29.90 in 10.0 mi ESE 9.2 mph - N/A   Scattered Clouds
2:54 AM 80.1 °F 85.8 °F 77.0 °F 90% 29.88 in 10.0 mi East 11.5 mph - N/A   Scattered Clouds
3:54 AM 80.1 °F 85.8 °F 77.0 °F 90% 29.89 in 10.0 mi ESE 10.4 mph - N/A   Scattered Clouds
4:54 AM 80.1 °F 85.8 °F 77.0 °F 90% 29.89 in 10.0 mi ESE 11.5 mph - N/A   Scattered Clouds
5:54 AM 80.1 °F 86.4 °F 78.1 °F 94% 29.90 in 10.0 mi ESE 10.4 mph - N/A   Scattered Clouds
6:54 AM 82.0 °F 91.0 °F 78.1 °F 88% 29.92 in 10.0 mi ESE 6.9 mph - N/A   Scattered Clouds
7:54 AM 82.0 °F 91.0 °F 78.1 °F 88% 29.94 in 10.0 mi ESE 5.8 mph - N/A   Scattered Clouds
8:54 AM 84.9 °F 97.5 °F 79.0 °F 82% 29.95 in 10.0 mi ESE 10.4 mph - N/A   Scattered Clouds
9:54 AM 86.0 °F 98.3 °F 78.1 °F 77% 29.95 in 10.0 mi East 10.4 mph - N/A   Scattered Clouds
10:54 AM 86.0 °F 99.3 °F 79.0 °F 79% 29.94 in 10.0 mi ESE 9.2 mph - N/A   Scattered Clouds
11:54 AM 87.1 °F 101.5 °F 79.0 °F 77% 29.93 in 10.0 mi East 9.2 mph - 0.05 in   Scattered Clouds
12:54 PM 86.0 °F 99.3 °F 79.0 °F 79% 29.92 in 10.0 mi East 10.4 mph - 0.02 in   Partly Cloudy
1:54 PM 87.1 °F 101.5 °F 79.0 °F 77% 29.91 in 10.0 mi East 10.4 mph 17.3 mph N/A   Scattered Clouds
2:54 PM 87.1 °F 101.5 °F 79.0 °F 77% 29.89 in 10.0 mi East 11.5 mph - N/A   Partly Cloudy
3:54 PM 86.0 °F 99.3 °F 79.0 °F 79% 29.89 in 10.0 mi East 11.5 mph - N/A   Partly Cloudy
4:54 PM 84.9 °F 96.6 °F 78.1 °F 80% 29.90 in 10.0 mi ENE 8.1 mph - N/A   Scattered Clouds
5:54 PM 84.0 °F 94.8 °F 78.1 °F 82% 29.91 in 10.0 mi ENE 8.1 mph - N/A   Scattered Clouds
6:54 PM 81.0 °F 89.2 °F 79.0 °F 94% 29.92 in 10.0 mi ENE 5.8 mph - N/A   Scattered Clouds
7:54 PM 81.0 °F 88.6 °F 78.1 °F 91% 29.94 in 10.0 mi East 8.1 mph - N/A   Scattered Clouds
8:54 PM 81.0 °F 88.6 °F 78.1 °F 91% 29.95 in 10.0 mi East 8.1 mph - N/A   Scattered Clouds
9:54 PM 81.0 °F 89.2 °F 79.0 °F 94% 29.96 in 10.0 mi East 10.4 mph - N/A   Scattered Clouds
10:54 PM 81.0 °F 88.6 °F 78.1 °F 91% 29.96 in 10.0 mi East 8.1 mph - N/A   Scattered Clouds
11:54 PM 81.0 °F 88.6 °F 78.1 °F 91% 29.96 in 10.0 mi East 9.2 mph - N/A   Scattered Clouds